User: anonymous   Login
Location: *
(48.8667°N, 2.3331°E)
Time: 13:42:52
(UTC+00:00)
Language:

Cosmos 1953 Rocket - Orbit

View from above orbital plane
View from above orbital plane
View from above satellite
View from above satellite

Ground track
Ground track

The orbit data is extracted from the following two-line orbital elements,

1 19211U 88050B   20191.90543036 +.00000051 +00000-0 +32774-5 0  9992
2 19211 082.5255 236.0157 0022690 034.4466 138.4545 14.83072844711519
Epoch (UTC): 09 July 2020 21:43:49
Eccentricity: 0.0022690
inclination: 82.5255°
perigee height: 604 km
apogee height: 635 km
right ascension of ascending node: 236.0157°
argument of perigee: 34.4466°
revolutions per day: 14.83072844
mean anomaly at epoch: 138.4545°
orbit number at epoch: 71151

The dashed part of the orbit path shows where the satellite is in the earth's shadow,  

DLR